Weather History for K65S - April, 2014

Change the Weather History Date:

Wednesday, April 23, 2014

  Actual Average (KSZT) Record (KSZT)
Temperature  
Mean Temperature 42 °F -  
Max Temperature 50 °F 60 °F 85 °F (1977)
Min Temperature 35 °F 38 °F 25 °F (1926)
Degree Days  
Heating Degree Days 22    
Moisture  
Dew Point 32 °F    
Average Humidity 72    
Maximum Humidity 93    
Minimum Humidity 46    
Precipitation  
Precipitation 0.00 in - - ()
Sea Level Pressure  
Sea Level Pressure 29.80 in    
Wind  
Wind Speed 7 mph (SSW)    
Max Wind Speed 13 mph    
Max Gust Speed 21 mph    
Visibility 10 miles    
Events Rain    
Averages and records for this station are not official NWS values.
T = Trace of Precipitation, MM = Missing Value Source: NWS Daily Summary

Daily Weather History Graph

Daily Weather History Graph

Search for Another Location

Airport or City:

Trip Planner

Search our weather history database for the weather conditions in past years. The results will help you decide how hot, cold, wet, or windy it might be!

Date:

Astronomy

Apr. 23, 2014 Rise Set
Actual Time 5:39 AM PDT 7:48 PM PDT
Civil Twilight 5:04 AM PDT 8:23 PM PDT
Nautical Twilight 4:22 AM PDT 9:05 PM PDT
Astronomical Twilight 3:34 AM PDT 9:54 PM PDT
Moon 2:44 AM PDT (4/23) 1:33 PM PDT (4/23)
Length of Visible Light 15h 18m
Length of Day
14h 09m
Waning Crescent, 34% of the Moon is Illuminated
Apr 23
Waning Crescent
Apr 28
New
May 6
First Quarter
May 14
Full
May 21
Last Quarter

Hourly Weather History & Observations

Time (PDT) Temp. Windchill Dew Point Humidity Pressure Visibility Wind Dir Wind Speed Gust Speed Precip Events Conditions
12:15 AM 39.2 °F 34.2 °F 32.0 °F 75% 29.76 in 10.0 mi SSW 6.9 mph - N/A   Clear
12:35 AM 39.2 °F 35.0 °F 32.0 °F 75% 29.76 in 10.0 mi SW 5.8 mph - N/A   Clear
12:55 AM 37.4 °F 32.8 °F 32.0 °F 81% 29.75 in 10.0 mi WSW 5.8 mph - N/A   Clear
1:15 AM 39.2 °F 34.2 °F 32.0 °F 75% 29.76 in 10.0 mi SW 6.9 mph - N/A   Mostly Cloudy
1:35 AM 37.4 °F 33.8 °F 32.0 °F 81% 29.76 in 10.0 mi SW 4.6 mph - N/A   Scattered Clouds
1:55 AM 37.4 °F 32.1 °F 32.0 °F 81% 29.76 in 10.0 mi SW 6.9 mph - N/A   Clear
2:15 AM 37.4 °F 32.1 °F 32.0 °F 81% 29.76 in 10.0 mi SW 6.9 mph - N/A   Clear
2:35 AM 37.4 °F 32.1 °F 32.0 °F 81% 29.76 in 10.0 mi SW 6.9 mph - N/A   Clear
2:55 AM 37.4 °F 31.4 °F 32.0 °F 81% 29.76 in 10.0 mi SW 8.1 mph - N/A   Clear
3:15 AM 37.4 °F 32.1 °F 32.0 °F 81% 29.77 in 10.0 mi SW 6.9 mph - N/A   Clear
3:35 AM 37.4 °F 31.4 °F 32.0 °F 81% 29.77 in 10.0 mi SSW 8.1 mph - N/A   Clear
3:55 AM 37.4 °F 31.4 °F 32.0 °F 81% 29.77 in 10.0 mi SSW 8.1 mph - N/A   Clear
4:15 AM 35.6 °F 29.9 °F 30.2 °F 81% 29.78 in 10.0 mi SW 6.9 mph - N/A   Clear
4:35 AM 35.6 °F 29.2 °F 30.2 °F 81% 29.78 in 10.0 mi SW 8.1 mph - N/A   Clear
4:55 AM 35.6 °F 29.9 °F 28.4 °F 75% 29.79 in 10.0 mi SW 6.9 mph - N/A   Clear
5:15 AM 35.6 °F 29.9 °F 28.4 °F 75% 29.79 in 10.0 mi SW 6.9 mph - N/A   Clear
5:35 AM 35.6 °F 31.7 °F 28.4 °F 75% 29.80 in 10.0 mi SW 4.6 mph - N/A   Scattered Clouds
5:55 AM 35.6 °F - 28.4 °F 75% 29.80 in 10.0 mi Calm Calm - N/A   Overcast
6:15 AM 35.6 °F 29.9 °F 28.4 °F 75% 29.80 in 10.0 mi SW 6.9 mph - N/A   Overcast
6:35 AM 35.6 °F 29.9 °F 28.4 °F 75% 29.80 in 10.0 mi SW 6.9 mph - N/A   Overcast
6:55 AM 35.6 °F 29.2 °F 28.4 °F 75% 29.80 in 10.0 mi SW 8.1 mph - N/A   Overcast
7:15 AM 35.6 °F 29.9 °F 30.2 °F 81% 29.81 in 10.0 mi SSW 6.9 mph - N/A   Overcast
7:35 AM 37.4 °F 33.8 °F 30.2 °F 75% 29.80 in 10.0 mi SSW 4.6 mph - N/A   Overcast
7:55 AM 37.4 °F 32.8 °F 32.0 °F 81% 29.80 in 10.0 mi SW 5.8 mph - N/A   Mostly Cloudy
8:15 AM 37.4 °F 33.8 °F 32.0 °F 81% 29.80 in 10.0 mi SSW 4.6 mph - N/A   Mostly Cloudy
8:35 AM 39.2 °F 34.2 °F 32.0 °F 75% 29.80 in 10.0 mi SSW 6.9 mph - N/A   Scattered Clouds
8:55 AM 39.2 °F 35.9 °F 32.0 °F 75% 29.80 in 10.0 mi SSW 4.6 mph - N/A   Mostly Cloudy
9:15 AM 39.2 °F 35.0 °F 32.0 °F 75% 29.80 in 10.0 mi South 5.8 mph - N/A   Overcast
9:35 AM 39.2 °F 37.0 °F 32.0 °F 75% 29.80 in 10.0 mi SSW 3.5 mph - N/A   Mostly Cloudy
9:55 AM 39.2 °F 34.2 °F 33.8 °F 81% 29.80 in 10.0 mi SSW 6.9 mph - N/A   Mostly Cloudy
10:15 AM 39.2 °F 34.2 °F 33.8 °F 81% 29.80 in 10.0 mi SSW 6.9 mph - N/A   Clear
10:35 AM 41.0 °F 36.4 °F 33.8 °F 76% 29.80 in 10.0 mi SSW 6.9 mph - N/A   Scattered Clouds
10:55 AM 41.0 °F 38.0 °F 33.8 °F 76% 29.80 in 10.0 mi South 4.6 mph - N/A   Mostly Cloudy
11:15 AM 44.6 °F 38.8 °F 33.8 °F 66% 29.80 in 10.0 mi SSW 11.5 mph - N/A   Mostly Cloudy
11:35 AM 42.8 °F 38.6 °F 32.0 °F 66% 29.80 in 10.0 mi South 6.9 mph 19.6 mph N/A   Mostly Cloudy
11:55 AM 42.8 °F 38.6 °F 32.0 °F 66% 29.79 in 10.0 mi SSW 6.9 mph 19.6 mph N/A   Mostly Cloudy
12:15 PM 46.4 °F 41.5 °F 32.0 °F 57% 29.79 in 10.0 mi SW 10.4 mph 17.3 mph N/A   Mostly Cloudy
12:35 PM 44.6 °F 41.4 °F 32.0 °F 61% 29.79 in 10.0 mi SSW 5.8 mph 18.4 mph N/A   Mostly Cloudy
12:55 PM 48.2 °F - 32.0 °F 54% 29.79 in 10.0 mi SW 8.1 mph 19.6 mph N/A   Mostly Cloudy
1:15 PM 48.2 °F - 32.0 °F 54% 29.79 in 10.0 mi SSW 12.7 mph 20.7 mph N/A   Mostly Cloudy
1:35 PM 46.4 °F 41.5 °F 32.0 °F 57% 29.79 in 10.0 mi South 10.4 mph 17.3 mph N/A   Mostly Cloudy
1:55 PM 48.2 °F - 32.0 °F 54% 29.78 in 10.0 mi SSW 8.1 mph - N/A   Partly Cloudy
2:15 PM 48.2 °F - 32.0 °F 54% 29.78 in 10.0 mi SW 10.4 mph 16.1 mph N/A   Clear
2:35 PM 50.0 °F - 32.0 °F 50% 29.78 in 10.0 mi SSW 6.9 mph 16.1 mph N/A   Clear
2:55 PM 48.2 °F - 32.0 °F 54% 29.78 in 10.0 mi SSW 9.2 mph 17.3 mph N/A   Partly Cloudy
3:15 PM 44.6 °F 40.2 °F 32.0 °F 61% 29.80 in 10.0 mi SW 8.1 mph - N/A   Mostly Cloudy
3:35 PM 42.8 °F 37.5 °F 33.8 °F 70% 29.80 in 10.0 mi SSW 9.2 mph 18.4 mph N/A Rain Light Rain
3:55 PM 44.6 °F 41.4 °F 33.8 °F 66% 29.80 in 10.0 mi SSW 5.8 mph - N/A   Scattered Clouds
4:15 PM 46.4 °F 42.4 °F 32.0 °F 57% 29.78 in 10.0 mi SSW 8.1 mph - N/A   Partly Cloudy
4:35 PM 48.2 °F - 32.0 °F 54% 29.78 in 10.0 mi SW 10.4 mph 16.1 mph N/A   Clear
4:55 PM 48.2 °F - 32.0 °F 54% 29.79 in 10.0 mi SW 5.8 mph - N/A   Clear
5:15 PM 48.2 °F - 28.4 °F 46% 29.79 in 10.0 mi SSW 6.9 mph - N/A   Clear
5:35 PM 48.2 °F - 30.2 °F 50% 29.79 in 10.0 mi SSW 6.9 mph - N/A   Clear
5:55 PM 48.2 °F - 30.2 °F 50% 29.79 in 10.0 mi SSW 5.8 mph - N/A   Scattered Clouds
6:15 PM 48.2 °F - 32.0 °F 54% 29.79 in 10.0 mi SW 5.8 mph 16.1 mph N/A   Partly Cloudy
6:35 PM 48.2 °F - 32.0 °F 54% 29.80 in 10.0 mi SW 10.4 mph - N/A   Clear
6:55 PM 44.6 °F 41.4 °F 33.8 °F 66% 29.80 in 10.0 mi SW 5.8 mph - N/A   Clear
7:15 PM 42.8 °F 37.5 °F 33.8 °F 70% 29.81 in 10.0 mi SW 9.2 mph 16.1 mph N/A   Partly Cloudy
7:35 PM 41.0 °F 36.4 °F 33.8 °F 76% 29.81 in 10.0 mi SW 6.9 mph - N/A   Mostly Cloudy
7:55 PM 41.0 °F 35.8 °F 35.6 °F 81% 29.82 in 10.0 mi SSW 8.1 mph - N/A   Mostly Cloudy
8:15 PM 41.0 °F 37.1 °F 35.6 °F 81% 29.82 in 10.0 mi SSW 5.8 mph - N/A   Mostly Cloudy
8:35 PM 41.0 °F - 35.6 °F 81% 29.83 in 10.0 mi Calm Calm - N/A   Overcast
8:55 PM 41.0 °F 35.8 °F 35.6 °F 81% 29.84 in 10.0 mi SW 8.1 mph - N/A   Mostly Cloudy
9:15 PM 39.2 °F 35.9 °F 35.6 °F 87% 29.84 in 10.0 mi SSW 4.6 mph - N/A   Partly Cloudy
9:35 PM 39.2 °F 34.2 °F 35.6 °F 87% 29.85 in 10.0 mi SSW 6.9 mph - N/A   Clear
9:55 PM 39.2 °F 35.0 °F 33.8 °F 81% 29.85 in 10.0 mi South 5.8 mph - N/A   Clear
10:15 PM 39.2 °F 35.9 °F 33.8 °F 81% 29.85 in 10.0 mi South 4.6 mph - N/A   Clear
10:35 PM 39.2 °F 35.9 °F 35.6 °F 87% 29.85 in 10.0 mi South 4.6 mph - N/A Rain Light Rain
10:55 PM 39.2 °F - 35.6 °F 87% 29.86 in 10.0 mi Calm Calm - N/A   Mostly Cloudy
11:15 PM 39.2 °F - 35.6 °F 87% 29.86 in 9.0 mi Calm Calm - N/A Rain Light Rain
11:35 PM 37.4 °F - 35.6 °F 93% 29.85 in 10.0 mi Calm Calm - N/A Rain Light Rain
11:55 PM 37.4 °F - 35.6 °F 93% 29.85 in 10.0 mi Calm Calm - N/A   Overcast